Home   Weather   Golden   Past weeks
Flag for Canada

Past Weather in Golden, British Columbia, Canada — Yesterday and Last 2 Weeks

Now
33 °F

Chilly.


Feels Like: 28 °F
Forecast: 50 / 39 °F
Wind: 6 mph from West

Location: Yoho Park

Current Time: Oct 17, 2019 at 9:29:36 am

Latest Report: Oct 17, 2019 at 8:00 am


Visibility: N/A

Pressure: 29.52 "Hg (26.71 "Hg at 800m altitude)

Humidity: 100%

Dew Point: 33 °F

Location of GoldenLocation

Past Weather in Golden — Graph

°F

Golden Temperature Yesterday

Maximum temperature yesterday: 41 °F (at 1:00 pm)
Minimum temperature yesterday: 31 °F (at 3:00 am)
Average temperature yesterday: 35 °F

High & Low Weather Summary for the Past Weeks

 TemperatureHumidityPressure
High49 °F (Oct 6, 4:00 pm)100% (Oct 4, 6:00 am)30.59 "Hg (Oct 4, 6:00 am)
Low1 °F (Oct 10, 8:00 am)36% (Oct 6, 4:00 pm)29.43 "Hg (Oct 7, 11:00 pm)
Average30 °F84%30.07 "Hg
* Reported Oct 2 8:00 am — Oct 17 8:00 am, Golden. Weather by CustomWeather, © 2019

Note: Actual official high and low records may vary slightly from our data, if they occured in-between our weather recording intervals... More about our weather records

Advertising

Golden Weather History for the Previous 24 Hours

Scroll right to see more
 ConditionsComfort  
Time TempWeatherWind HumidityBarometerVisibility
8:00 am
Thu, Oct 17
33 °FChilly.6 mph100%29.52 "HgN/A
7:00 am33 °FChilly.1 mph100%29.52 "HgN/A
6:00 am33 °FChilly.5 mph100%29.51 "HgN/A
5:00 am33 °FChilly.6 mph98%29.54 "HgN/A
4:00 am31 °FChilly.1 mph100%29.56 "HgN/A
3:00 am31 °FChilly.No wind100%29.56 "HgN/A
2:00 am33 °FChilly.1 mph95%29.59 "HgN/A
1:00 am34 °FChilly.No wind98%29.61 "HgN/A
12:00 am34 °FChilly.2 mph98%29.64 "HgN/A
11:00 pm
Wed, Oct 16
34 °FChilly.2 mph92%29.66 "HgN/A
10:00 pm34 °FChilly.2 mph93%29.69 "HgN/A
9:00 pm34 °FChilly.2 mph92%29.72 "HgN/A
8:00 pm34 °FChilly.1 mph92%29.74 "HgN/A
7:00 pm35 °FChilly.1 mph87%29.76 "HgN/A
6:00 pm37 °FChilly.1 mph81%29.76 "HgN/A
5:00 pm37 °FChilly.9 mph81%29.78 "HgN/A
4:00 pm39 °FChilly.13 mph75%29.79 "HgN/A
3:00 pm41 °FQuite cool.16 mph74%29.80 "HgN/A
2:00 pm40 °FChilly.14 mph74%29.82 "HgN/A
1:00 pm41 °FQuite cool.18 mph69%29.83 "HgN/A
12:00 pm40 °FChilly.17 mph72%29.85 "HgN/A
11:00 am38 °FChilly.18 mph74%29.88 "HgN/A
10:00 am35 °FChilly.16 mph81%29.91 "HgN/A
9:00 am35 °FChilly.17 mph82%29.92 "HgN/A
Weather by CustomWeather, © 2019

See weather overview